Location: Unspecified
(0.0000°N, 0.0000°E)
Time: 01:57:47
(UTC+02:00)

CZ-4B DEB - Visible Passes

Search period start: 19 April 2014 00:00
Search period end: 29 April 2014 00:00
Orbit: 529 x 547 km, 97.5° (Epoch: 17 April)

Date Brightness Start Highest point End Pass type
(mag) Time Alt. Az. Time Alt. Az. Time Alt. Az.
19 Apr 5.9 21:27:26 10° SSW 21:30:19 20° WSW 21:33:11 10° NW visible
20 Apr 5.5 21:19:02 10° SSW 21:22:19 26° WSW 21:25:34 10° NW visible
21 Apr 4.9 21:10:43 10° SSW 21:14:16 35° WSW 21:17:48 10° NW visible
22 Apr 4.3 21:02:26 10° S 21:06:11 47° WSW 21:09:53 10° NNW visible
23 Apr 3.6 20:54:12 10° S 20:58:03 66° WSW 21:01:51 10° NNW visible
24 Apr 3.2 20:45:59 10° S 20:49:52 90° E 20:53:42 10° N visible
25 Apr 3.2 20:37:48 10° SSE 20:41:39 65° E 20:45:27 10° N visible
26 Apr 3.5 20:29:39 10° SSE 20:33:23 46° E 20:37:04 10° N visible
27 Apr 3.9 20:21:33 10° SE 20:25:04 34° E 20:28:33 10° NNE visible
